CZ-3C DEB, 48544

Orbit data source: Space-Track

CZ-3C DEB, 48544 is space debris in HEO originally from a launch on Sun, 31 Oct 2010 UTC launched from the Xichang Space Center, China (XSC). Debris objects in space refer to the collection of defunct objects orbiting the Earth. Examples of debris include non-operational satellites, rocket bodies, and fragments generated from explosions, collisions, or faulty payload assembly.

Loading next visibility...
Identifier
48544, 2010-057BP
Orbit
HEO
Country
Flag of CNCN / PRC
Related business
Manufacturer
CALT
Mission
Spacecraft
Bus & Motor
Unknown
Mass
Unknown
Launch date (UTC)
2010-10-31 (15 years ago)
Launch vehicle
Unknown
Launch site
Xichang Space Center, China (XSC)
Object type
Payload
Rocket body
Debris
Shape & HBR
Unknown shape, 0.3 m
Radar Cross Section
Medium (>0.1 m² and <1 m²)

Expand to show TLE details & history
Last TLE update: 4 days ago

TLE from 4 days ago
0 CZ-3C DEB
1 48544U 10057BP  26102.14254717  .00002860  00000-0  22326-2 0  9993
2 48544  20.4631 318.6653 4837458 289.5838  25.5204  5.72753707225063
Epoch: 2026-04-12T03:25Z
TLE epoch observation values (Epoch: 2026-04-12T03:25:16.075Z)
Latitude
0.00011°
Longitude
66.99758°
Altitude
2,324.517 km
Speed
7.836 km/s
True Right ascension
21h 14m 39s
True Declination
0° 00' 00"
Sunlit
Object was in daylight at epoch
Visualization orbit readout
Latitude
Unknown
Longitude
Unknown
Altitude
Unknown
Speed
Unknown
Apparent Right ascension
Unknown
Apparent Declination
Unknown
Sunlit
N/A
Visualization observer readout
Local Sidereal Time
07:25:30
Azimuth
Unknown
Elevation
Unknown
Doppler factor
Unknown
Orbital elements
Apogee altitude
13,206.559 km
Perigee altitude
436.158 km
Semi-major axis
13,199.495 km
Eccentricity
0.48375
Inclination
20.4631°
RAAN
318.6653°
Arg. of periapsis
289.5838°
True anomaly
70.39466°
Mean anomaly
25.5204°
Eccentric anomaly
45.18071°
Mean motion
1.43122 °/min
Orbital period
251.53 mins
BSTAR
0.0022326
Loading maneuver chart data...
Computing Atmospheric mass density...
Loading historical data...
Loading historical data...
Loading historical data...
Loading historical data...
Loading historical data...
Loading historical data...
Loading historical data...

Documentation

Showing up to 5 results
|